This is the latest recevied weather packets stored in our database for station/object F4GQK-13. If no packets are shown the sender has not sent any weather packets the latest 10 day(s).
| Time | Temp. | Humidity | Pressure | Rain* | Wind** | Luminosity | Snow |
|---|---|---|---|---|---|---|---|
| 1777207506 | 23.33° C | 31% | 1023 hPa | 0 mm | - | 764 W/m² | - |
| 1777207205 | 22.78° C | 35% | 1023.1 hPa | 0 mm | - | 734 W/m² | - |
| 1777206905 | 22.78° C | 36% | 1023 hPa | 0 mm | - | 767 W/m² | - |
| 1777206606 | 23.33° C | 33% | 1023.1 hPa | 0 mm | - | 762 W/m² | - |
| 1777206309 | 22.78° C | 30% | 1023.3 hPa | 0 mm | - | 687 W/m² | - |
| 1777206006 | 22.78° C | 31% | 1023.1 hPa | 0 mm | - | 755 W/m² | - |
| 1777205705 | 22.78° C | 33% | 1023.4 hPa | 0 mm | - | 772 W/m² | - |
| 1777205404 | 22.22° C | 34% | 1023.3 hPa | 0 mm | - | 761 W/m² | - |
| 1777205105 | 22.22° C | 32% | 1023.1 hPa | 0 mm | - | 762 W/m² | - |
| 1777204805 | 22.22° C | 34% | 1023.3 hPa | 0 mm | - | 751 W/m² | - |
| 1777204502 | 21.11° C | 35% | 1023.5 hPa | 0 mm | - | 691 W/m² | - |
| 1777204204 | 21.11° C | 37% | 1023.4 hPa | 0 mm | - | 599 W/m² | - |
| 1777203905 | 21.11° C | 36% | 1023.5 hPa | 0 mm | - | 438 W/m² | - |
| 1777203605 | 21.11° C | 34% | 1023.4 hPa | 0 mm | - | 572 W/m² | - |
| 1777203305 | 21.67° C | 33% | 1023.5 hPa | 0 mm | - | 412 W/m² | - |
| 1777203005 | 21.67° C | 35% | 1023.2 hPa | 0 mm | - | 545 W/m² | - |
| 1777202705 | 21.11° C | 34% | 1023.6 hPa | 0 mm | - | 688 W/m² | - |
| 1777202406 | 20.56° C | 37% | 1023.7 hPa | 0 mm | - | 806 W/m² | - |
| 1777202105 | 20.56° C | 34% | 1023.5 hPa | 0 mm | - | 768 W/m² | - |
| 1777201805 | 20.56° C | 37% | 1023.7 hPa | 0 mm | - | 700 W/m² | - |
| 1777201505 | 20.56° C | 41% | 1023.6 hPa | 0 mm | - | 732 W/m² | - |
| 1777201205 | 20° C | 42% | 1023.6 hPa | 0 mm | - | 561 W/m² | - |
| 1777200905 | 20° C | 41% | 1023.6 hPa | 0 mm | - | 338 W/m² | - |
| 1777200605 | 20° C | 39% | 1023.7 hPa | 0 mm | - | 536 W/m² | - |
| 1777200306 | 20.56° C | 41% | 1023.6 hPa | 0 mm | - | 396 W/m² | - |
* Rain latest hour (hover to see other rain measurements)
** Current wind speed in m/s (hover to see current wind gust speed)